Weather in Komsomolskoye

Russia / Zabaykalsky Krai     52°20′55″N   116°52′08″E
temp.,
°C
wind,
m/s
gust,
m/s
humid.,
%
clouds,
%
prec.,
mm/h
press.,
hPa
HPBL,
m
19 april, mon
mon1900:00−3nnw712341 0.0 1019852
03:00−4nnw510390 0.0 1022740
06:00−6nnw35410 0.0 1024132
09:00−3n452382 0.0 1025902
12:000nw331499 0.0 10231392
15:00+4w441348 0.0 10201792
18:00+5wsw25140 0.0 10192293
21:00+1sse46225 0.0 101990
20 april, tue
tue2000:00−1sse362895 0.0 1019118
03:00−1e352954 0.0 101578
06:00−3ese233224 0.0 101331
09:00+3sse3625100 0.0 1010385
12:00+10w462380 0.0 1006988
15:00+16sw4720100 0.0 10031766
18:00+18wsw351995 0.0 10011781
21:00+12sw11294 0.0 100211
21 april, wed
wed2100:00+9sse11351 0.0 100310
03:00+7ne114399 0.0 100310
06:00+4ne22529 0.0 100414
09:00+8ne344085 0.0 1004310
12:00+13nne22294 0.0 1003837
15:00+17nnw4324100 0.0 10011355
18:00+17nw5525100 0.0 10021437
21:00+8n71252100 0.0 1006339
22 april, thu
thu2200:00+6nne61051100 0.0 1011604
03:00+4nne5106024 0.0 1013414
06:00+2n487663 0.0 1016306
09:00+4nne565854 0.0 1019888
12:00+7n5632100 0.0 10201425
15:00+10n562185 0.0 10201946
18:00+9n6622100 0.0 10221785
21:00+6nne71133100 0.0 1026521
23 april, fri
fri2300:00+3ne6113897 0.0 1029593
03:00+2ene61142100 0.0 1032785
06:00+1ene6945100 0.4 1034658
09:00+2ene5538100 0.4 1035843
12:00+5ene3429100 0.0 10341371
15:00+7nne3323100 0.0 10321908
18:00+8nnw2424100 0.0 10322067
21:00+5wsw2331100 0.0 103350